weather.gov     
National Weather Service

Weather Roundup
NWS Homepage
This page is being discontinued on March 12, 2014.
The same data is available at this site. Please update your bookmarks.
Thank you, and we apologize for the inconvenience.
Please send an email to SR-SRH.Webmaster@noaa.gov with any concerns.


Current Version
Previous Version:    01  02  03  04  05  06  07  08  09  10  11  12  13  14  15  16  17  18  19  20  21  22  23  24  25  26  27  28  29  30  
   31  32  33  34  35  36  37  38  39  40  41  42  43  44  45  46  47  48  49  50  51  52  53  54  55  56  57  58  59  60  
[Printable]
325
ASUS44 KCRP 291010
HRRCRP

SOUTH TEXAS REGIONAL WEATHER ROUNDUP
NATIONAL WEATHER SERVICE CORPUS CHRISTI TX
500 AM CDT TUE JUL 29 2014


TXZ229>244-291100-
...CORPUS CHRISTI AREA OBSERVATIONS...

CITY           SKY/WX    TMP DP  RH WIND       PRES   REMARKS
CORPUS CHRISTI PTCLDY    72  71  97 S6        30.04S
NAS CORPUS CHR CLEAR     78  76  93 S6        30.03F
ROCKPORT       CLEAR     77  75  93 SW3       30.03F
KINGSVILLE NAS PTCLDY    72  72 100 CALM      30.04S FOG
ALICE          FOG       71  71 100 CALM      30.04S VSB 1/4
FALFURRIAS     CLEAR     60  32  35 CALM      30.03S
$$

...VICTORIA AREA OBSERVATIONS...

CITY           SKY/WX    TMP DP  RH WIND       PRES   REMARKS
VICTORIA       CLEAR     78  75  90 CALM      30.06R
BEEVILLE       FAIR      74  74 100 S3        30.05S
PLEASANTON     CLEAR     73  67  80 CALM      30.06S
SAN ANTONIO    PTCLDY    78  66  66 CALM      30.08S
$$

...LAREDO AREA OBSERVATIONS...

CITY           SKY/WX    TMP DP  RH WIND       PRES   REMARKS
LAREDO         CLEAR     80  70  71 SE7       30.06S
COTULLA        CLEAR     78  71  79 SE7       30.04S
DEL RIO        CLEAR     82  66  58 E7        30.04S
MCALLEN        CLEAR     77  75  93 SE6       30.03S
HEBBRONVILLE   CLEAR     74  71  90 SE6       30.06S
$$

...OTHER TEXAS OBSERVATIONS...

CITY           SKY/WX    TMP DP  RH WIND       PRES   REMARKS
BROWNSVILLE    CLEAR     76  74  93 S6        30.03S
HOUSTON        MOCLDY    81  76  84 NW7       30.05R
COL. STATION   PTCLDY    77  70  79 E3        30.06S
AUSTIN         PTCLDY    73  70  90 CALM      30.07R
WACO           PTCLDY    74  70  87 NE3       30.08F
FORT WORTH     PTCLDY    73  61  65 N5        30.09F
WICHITA FALLS  CLOUDY    73  70  90 NE3       30.13F
LUBBOCK        CLOUDY    67  57  70 SE9       30.22F
EL PASO        PTCLDY    74  62  66 N14       30.16R
$$

...MARINE OBSERVATIONS...

STATION/POSITION TIME  SKY/WX   TEMP    WIND        PRES    VSBY  WAVE   SWELL
                                AIR SEA DIR/SP/G                  HT/PER HT/PER
                 (UTC)          (F)     (DEG/KT/KT) (MB)    (MI)  (FT/S) (FT/S)
PORT ARANSAS     1000            79 82  190/  8/  9 1017.6F
BUOY 90 E PORT A 1000            83 84  230/ 12/ 14 1017.2R         2/ 6   2/ 6
BUOY 45 SE BAFFI 1000            82 84  190/ 12/ 14 1016.9S         2/ 4   2/ 5
BUOY 200 E PT IS 1000            83 86  230/  6/  8 1017.1R         1/ 8   2/ 8
BUOY 15 E GALVES NOT AVBL
$$




U.S. Dept. of Commerce
NOAA National Weather Service
1325 East West Highway
Silver Spring, MD 20910
E-mail: w-nws.webmaster@noaa.gov
Page last modified: May 16, 2007
NATIONAL WEATHER SERVICE: for Safety, for Work, for Fun - FOR LIFE